FW6242 Weather Reports


Display with metric or nautical units.
time (UTC)temp
F
wind
direction
speed
MPH
gust
MPH
rain 1hr
in
rain 24hr
in
rain mn
in
humidity
%
barometer
mb
20260505205214 70 0 0.0 0.0 0.00 0.00 0.00 91 1010.1
20260505204704 70 0 0.0 0.0 0.00 0.00 0.00 91 1009.8
20260505203755 70 0 0.0 0.0 0.00 0.00 0.00 90 1010.0
20260505203245 70 0 0.0 0.0 0.00 0.00 0.00 90 1010.2
20260505202736 70 0 0.0 0.0 0.00 0.00 0.00 90 1010.2
20260505202225 70 0 0.0 0.0 0.00 0.00 0.00 90 1010.0
20260505201714 70 0 0.0 0.0 0.00 0.00 0.00 90 1010.2
20260505201204 70 0 0.0 0.0 0.00 0.00 0.00 90 1010.1
20260505200144 70 0 0.0 2.0 0.00 0.00 0.00 91 1010.1
20260505195633 69 0 0.0 2.0 0.00 0.00 0.00 91 1010.4
20260505195123 69 0 0.0 2.0 0.00 0.00 0.00 91 1010.1
20260505193553 69 0 0.0 2.0 0.00 0.00 0.00 91 1010.2
20260505193047 69 0 0.0 2.0 0.00 0.00 0.00 91 1010.3
20260505192533 69 0 0.0 3.0 0.00 0.00 0.00 91 1010.3
20260505192024 69 0 0.0 3.0 0.00 0.00 0.00 91 1010.2
20260505191002 69 0 1.0 4.0 0.00 0.00 0.00 91 1010.2
20260505185943 69 0 1.0 4.0 0.00 0.00 0.00 92 1010.4
20260505185431 69 0 1.0 4.0 0.00 0.00 0.00 92 1010.4
20260505184922 69 0 0.0 3.0 0.00 0.00 0.00 92 1010.2
20260505184412 69 0 0.0 4.0 0.00 0.00 0.00 92 1010.4
20260505183902 69 0 0.0 5.0 0.00 0.00 0.00 92 1010.5
20260505183351 68 0 0.0 5.0 0.00 0.00 0.00 93 1010.5
20260505182842 68 0 2.0 5.0 0.00 0.00 0.00 93 1010.3
20260505182332 68 0 1.0 4.0 0.00 0.00 0.00 93 1010.3
20260505181821 68 0 2.0 4.0 0.00 0.00 0.00 93 1010.7
20260505181311 68 0 0.0 4.0 0.00 0.00 0.00 93 1010.8
20260505180251 68 0 1.0 3.0 0.00 0.00 0.00 93 1010.9
20260505175735 68 0.0 0.0 0.00 0.00 0.00 94
20260505170324 67 0 0.0 0.0 0.00 0.00 0.00 95 1011.4
20260505165306 67 0 0.0 0.0 0.00 0.00 0.00 95 1011.3
20260505164755 67 0 0.0 0.0 0.00 0.00 0.00 95 1011.6
20260505164243 67 0 0.0 0.0 0.00 0.00 0.00 95 1011.3
20260505162945 67 0 0.0 0.0 0.00 0.00 0.00 95 1011.5
20260505161924 67 0 0.0 0.0 0.00 0.00 0.00 95 1011.4
20260505161414 67 0 0.0 2.0 0.00 0.00 0.00 95 1011.7
20260505160353 67 0 0.0 2.0 0.00 0.00 0.00 95 1011.4
20260505152715 66 0 0.0 0.0 0.00 0.00 0.00 94 1011.6
20260505151654 66 0 0.0 0.0 0.00 0.00 0.00 94 1011.6
20260505150634 65 0 0.0 0.0 0.00 0.00 0.00 95 1011.8
20260505150124 65 0 0.0 1.0 0.00 0.00 0.00 94 1011.9
20260505140434 62 0 0.0 0.0 0.00 0.00 0.00 95 1012.1
20260505130232 60 0 0.0 0.0 0.00 0.00 0.00 95 1012.1
20260505124702 59 0 0.0 0.0 0.00 0.00 0.00 95 1011.9
20260505124151 59 0 0.0 0.0 0.00 0.00 0.00 95 1012.3
20260505123641 59 0 0.0 0.0 0.00 0.00 0.00 95 1012.0
20260505123131 59 0 0.0 0.0 0.00 0.00 0.00 95 1012.0
20260505122621 58 0 0.0 0.0 0.00 0.00 0.00 95 1011.9
20260505121600 58 0 0.0 0.0 0.00 0.00 0.00 95 1011.7
20260505121050 58 0 0.0 0.0 0.00 0.00 0.00 95 1011.9
20260505120030 57 0 0.0 0.0 0.00 0.00 0.00 95 1011.9
20260505115521 57 0 0.0 0.0 0.00 0.00 0.00 95 1011.8
20260505115023 57 0 0.0 3.0 0.00 0.00 0.00 95 1011.6
20260505113951 57 0 2.0 3.0 0.00 0.00 0.00 95 1011.7
20260505113440 57 0 2.0 3.0 0.00 0.00 0.00 95 1011.7
20260505112925 57 0.0 0.0 0.00 0.00 0.00 95
20260505111826 56 0 0.0 0.0 0.00 0.00 0.00 95 1011.2
20260505111316 56 0 0.0 0.0 0.00 0.00 0.00 95 1011.4
20260505110806 56 0 0.0 0.0 0.00 0.00 0.00 95 1011.2
20260505110257 56 0 0.0 0.0 0.00 0.00 0.00 95 1011.3
20260505102135 56 0 0.0 0.0 0.00 0.00 0.00 95 1010.4
20260505101115 56 0 0.0 0.0 0.00 0.00 0.00 95 1010.8
20260505100605 56 0 0.0 0.0 0.00 0.00 0.00 95 1010.5
20260505100057 56 0 0.0 0.0 0.00 0.00 0.00 95 1010.4
20260505095033 56 0 0.0 0.0 0.00 0.00 0.00 95 1010.4
20260505094525 55 0 0.0 2.0 0.00 0.00 0.00 95 1010.2
20260505094021 55 0 0.0 2.0 0.00 0.00 0.00 95 1009.9
20260505093504 55 0 0.0 4.0 0.00 0.00 0.00 95 1010.1
20260505092955 55 0 1.0 4.0 0.00 0.00 0.00 95 1009.9
20260505092444 55 0 0.0 0.0 0.00 0.00 0.00 95 1009.8
20260505091935 55 0 0.0 0.0 0.00 0.00 0.00 95 1009.7
20260505091424 55 0 0.0 0.0 0.00 0.00 0.00 95 1009.6
20260505090404 55 0 0.0 0.0 0.00 0.00 0.00 95 1009.7
20260505085854 55 0 0.0 0.0 0.00 0.00 0.00 95 1009.6
20260505084834 55 0 0.0 0.0 0.00 0.00 0.00 95 1009.9
20260505084324 55 0 0.0 0.0 0.00 0.00 0.00 95 1009.7
20260505083813 55 0 0.0 0.0 0.00 0.00 0.00 95 1009.7
20260505083303 54 0 0.0 0.0 0.00 0.00 0.00 95 1009.9
20260505082243 54 0 0.0 0.0 0.00 0.00 0.00 95 1009.8
20260505081734 54 0 0.0 0.0 0.00 0.00 0.00 95 1009.8
20260505081223 54 0 0.0 0.0 0.00 0.00 0.00 95 1009.9
20260505080713 54 0 0.0 0.0 0.00 0.00 0.00 95 1009.7
20260505075652 53 0 0.0 0.0 0.00 0.00 0.00 95 1009.8
20260505075143 54 0 0.0 0.0 0.00 0.00 0.00 95 1009.8
20260505074632 54 0 0.0 0.0 0.00 0.00 0.00 95 1009.8
20260505074122 54 0 0.0 0.0 0.00 0.00 0.00 95 1009.6
20260505073612 54 0 0.0 0.0 0.00 0.00 0.00 95 1009.8
20260505073102 54 0 0.0 0.0 0.00 0.00 0.00 95 1009.9
20260505072551 54 0 0.0 0.0 0.00 0.00 0.00 95 1009.9
20260505071022 54 0 0.0 0.0 0.00 0.00 0.00 95 1009.8
20260505070512 53 0 0.0 0.0 0.00 0.00 0.00 95 1009.8
20260505070001 53 0 0.0 0.0 0.00 0.00 0.00 95 1009.9
20260505065451 53 0 0.0 0.0 0.00 0.00 0.00 95 1009.8
20260505064941 53 0 0.0 0.0 0.00 0.00 0.00 95 1010.0
20260505064431 53 0 0.0 0.0 0.00 0.00 0.00 94 1010.0
20260505063920 54 0 0.0 0.0 0.00 0.00 0.00 95 1009.9
20260505063411 53 0 0.0 0.0 0.00 0.00 0.00 95 1009.9
20260505062900 53 0 0.0 0.0 0.00 0.00 0.00 94 1010.0
20260505062351 53 0 0.0 0.0 0.00 0.00 0.00 94 1010.2
20260505061843 53 0 0.0 0.0 0.00 0.00 0.00 94 1010.1
20260505061330 53 0 0.0 0.0 0.00 0.00 0.00 94 1010.1
20260505055940 54 0 0.0 3.0 0.00 0.00 0.00 94 1010.3
20260505055430 53 0 1.0 4.0 0.00 0.00 0.00 94 1010.5
20260505054920 53 0 2.0 4.0 0.00 0.00 0.00 93 1010.5
20260505053900 53 0 3.0 4.0 0.00 0.00 0.00 93 1010.1
20260505053349 54 0 2.0 4.0 0.00 0.00 0.00 93 1009.9
20260505052840 55 0 2.0 4.0 0.00 0.00 0.00 93 1010.1
20260505052329 55 0 2.0 4.0 0.00 0.00 0.00 93 1009.9
20260505051310 55 0 2.0 3.0 0.00 0.00 0.00 93 1009.9
20260505050250 53 0 1.0 4.0 0.00 0.00 0.00 93 1009.9
20260505041618 56 0 0.0 3.0 0.00 0.00 0.00 91 1009.4
20260505041108 56 0 0.0 2.0 0.00 0.00 0.00 91 1009.6
20260505040557 55 0 0.0 2.0 0.00 0.00 0.00 92 1009.5
20260505040045 53 0 0.0 0.0 0.00 0.00 0.00 92 1009.9
20260505035537 53 0 0.0 0.0 0.00 0.00 0.00 91 1010.0
20260505035027 54 0 0.0 0.0 0.00 0.00 0.00 91 1010.0
20260505034518 54 0 0.0 0.0 0.00 0.00 0.00 91 1010.2
20260505034022 55 0 0.0 0.0 0.00 0.00 0.00 91 1010.3
20260505033457 55 0 0.0 1.0 0.00 0.00 0.00 91 1010.3
20260505032946 55 0 0.0 1.0 0.00 0.00 0.00 91 1010.1
20260505032437 55 0 0.0 0.0 0.00 0.00 0.00 91 1010.1
20260505031927 55 0 0.0 0.0 0.00 0.00 0.00 91 1010.2
20260505031416 55 0 0.0 0.0 0.00 0.00 0.00 91 1010.0
20260505030357 55 0 0.0 0.0 0.00 0.00 0.00 91 1009.7
20260505025846 55 0 0.0 0.0 0.00 0.00 0.00 91 1009.8
20260505025336 55 0 0.0 0.0 0.00 0.00 0.00 90 1010.3
20260505024826 55 0 0.0 0.0 0.00 0.00 0.00 90 1009.9
20260505024315 55 0 0.0 2.0 0.00 0.00 0.00 90 1009.8
20260505023806 55 0 0.0 2.0 0.00 0.00 0.00 90 1009.9
20260505023255 55 0 0.0 2.0 0.00 0.00 0.00 90 1009.9
20260505022746 54 0 0.0 3.0 0.00 0.00 0.00 89 1009.6
20260505022235 55 0 0.0 3.0 0.00 0.00 0.00 89 1009.9
20260505021726 55 0 2.0 3.0 0.00 0.00 0.00 88 1009.6
20260505021215 56 0 2.0 4.0 0.00 0.00 0.00 88 1009.6
20260505020706 57 0 2.0 4.0 0.00 0.00 0.00 88 1009.5
20260505020156 56 0 2.0 4.0 0.00 0.00 0.00 88 1009.5
20260505015645 57 0 0.0 4.0 0.00 0.00 0.00 87 1009.4
20260505015135 58 0 2.0 4.0 0.00 0.00 0.00 87 1009.6
20260505014625 58 0 2.0 5.0 0.00 0.00 0.00 86 1009.5
20260505014115 59 0 2.0 5.0 0.00 0.00 0.00 86 1009.6
20260505013605 59 0 4.0 5.0 0.00 0.00 0.00 85 1009.6
20260505013055 59 0 4.0 5.0 0.00 0.00 0.00 85 1009.6
20260505012544 59 0 3.0 4.0 0.00 0.00 0.00 85 1009.8
20260505012039 59 0 2.0 4.0 0.00 0.00 0.00 85 1009.3
20260505011524 59 0 2.0 5.0 0.00 0.00 0.00 85 1009.4
20260505011023 59 0 2.0 5.0 0.00 0.00 0.00 85 1009.0
20260505005954 59 0 3.0 5.0 0.00 0.00 0.00 85 1009.0
20260505005443 59 0 3.0 5.0 0.00 0.00 0.00 85 1008.9
20260505004934 59 0 3.0 4.0 0.00 0.00 0.00 85 1008.9
20260505004423 59 0 2.0 4.0 0.00 0.00 0.00 85 1008.8
20260505003914 59 0 2.0 4.0 0.00 0.00 0.00 85 1008.9
20260505003403 60 0 2.0 4.0 0.00 0.00 0.00 84 1008.8
20260505002852 60 0 2.0 4.0 0.00 0.00 0.00 84 1008.9
20260505002343 60 0 2.0 4.0 0.00 0.00 0.00 84 1008.8
20260505001322 60 0 2.0 4.0 0.00 0.00 0.00 83 1008.3
20260505000812 60 0 2.0 4.0 0.00 0.00 0.00 84 1008.5
20260504235752 60 0 2.0 4.0 0.00 0.00 0.00 84 1008.4
20260504235242 61 0 1.0 3.0 0.00 0.00 0.00 84 1008.5
20260504234222 61 0 0.0 3.0 0.00 0.00 0.00 83 1008.4
20260504233711 62 0 0.0 4.0 0.00 0.00 0.00 83 1008.3
20260504233203 62 0 2.0 4.0 0.00 0.00 0.00 82 1008.2
20260504232653 61 0 2.0 3.0 0.00 0.00 0.00 83 1008.3
20260504232141 62 0 0.0 3.0 0.00 0.00 0.00 82 1008.0
20260504230611 63 0 0.0 4.0 0.00 0.00 0.00 79 1008.1
20260504225041 65 0 2.0 5.0 0.00 0.00 0.00 76 1007.9
20260504224531 65 0 3.0 7.0 0.00 0.00 0.00 75 1007.6
20260504224024 65 0 3.0 8.0 0.00 0.00 0.00 74 1008.0
20260504223511 64 0 3.0 8.0 0.00 0.00 0.00 75 1007.8
20260504223000 65 0 1.0 4.0 0.00 0.00 0.00 72 1007.7
20260504222450 65 0 2.0 3.0 0.00 0.00 0.00 70 1007.6
20260504221940 65 0 2.0 3.0 0.00 0.00 0.00 69 1007.4
20260504220921 65 0 1.0 4.0 0.00 0.00 0.00 68 1007.2
20260504220410 61 0 2.0 3.0 0.00 0.00 0.00 68 1007.4
20260504215900 61 0 0.0 0.0 0.00 0.00 0.00 73 1007.0
20260504215350 61 0 0.0 0.0 0.00 0.00 0.00 73 1007.3
20260504214839 63 0 0.0 0.0 0.00 0.00 0.00 72 1007.1
20260504214329 63 0 0.0 0.0 0.00 0.00 0.00 71 1007.1
20260504213821 63 0 0.0 0.0 0.00 0.00 0.00 70 1007.2
20260504213309 63 0 0.0 0.0 0.00 0.00 0.00 70 1006.9
20260504212800 65 0 0.0 0.0 0.00 0.00 0.00 70 1007.2
20260504211754 67 0 0.0 0.0 0.00 0.00 0.00 62 1007.2
20260504211243 67 0 0.0 0.0 0.00 0.00 0.00 62 1007.1
20260504210734 68 0 0.0 3.0 0.00 0.00 0.00 61 1007.2
20260504210222 69 0 0.0 4.0 0.00 0.00 0.00 60 1007.0
20260504205713 70 0 2.0 4.0 0.00 0.00 0.00 56 1007.1